Weather History for VIAR - February, 2013

Change the Weather History Date:

Friday, February 1, 2013

  Actual Average Record
Temperature  
Mean Temperature 55 °F -  
Max Temperature 68 °F 65 °F 75 °F (2007)
Min Temperature 42 °F 42 °F 32 °F (2001)
Degree Days  
Heating Degree Days 10    
Growing Degree Days 5 (Base 50)    
Moisture  
Dew Point 55 °F    
Average Humidity 96    
Maximum Humidity 100    
Minimum Humidity 78    
Precipitation  
Precipitation 0.00 in - - ()
Sea Level Pressure  
Sea Level Pressure 30.08 in    
Wind  
Wind Speed 1 mph ()    
Max Wind Speed 7 mph    
Max Gust Speed -    
Visibility 0.4 miles    
Events Fog    
Averages and records for this station are not official NWS values.
T = Trace of Precipitation, MM = Missing Value Source: Averaged Metar Reports

Daily Weather History Graph

Daily Weather History Graph

Search for Another Location

Airport or City:

Trip Planner

Search our weather history database for the weather conditions in past years. The results will help you decide how hot, cold, wet, or windy it might be!

Date:

Astronomy

Feb. 01, 2013 Rise Set
Actual Time 7:23 AM IST 6:05 PM IST
Civil Twilight 6:58 AM IST 6:30 PM IST
Nautical Twilight 6:29 AM IST 6:59 PM IST
Astronomical Twilight 6:00 AM IST 7:28 PM IST
Moon 11:17 PM IST (2/1) 10:04 AM IST (2/1)
Length of Visible Light 11h 32m
Length of Day
10h 41m
Waning Gibbous, 75% of the Moon is Illuminated
Feb 1
Waning Gibbous
Feb 3
Last Quarter
Feb 10
New
Feb 18
First Quarter
Feb 26
Full

Hourly Weather History & Observations

Time (IST) Temp. Dew Point Humidity Pressure Visibility Wind Dir Wind Speed Gust Speed Precip Events Conditions
2:30 AM 51 °F 51 °F 100% 30.10 in 0 mi Calm Calm - - Fog Partial Fog
2:30 AM 50.0 °F 50.0 °F 100% 30.06 in 0.1 mi Calm Calm - N/A Fog Fog
5:00 AM 44.6 °F 44.6 °F 100% 30.06 in - Calm Calm - N/A Fog Fog
5:30 AM 45 °F 45 °F 100% 30.10 in 0 mi Calm Calm - - Fog Heavy Fog
5:30 AM 46.4 °F 46.4 °F 100% 30.06 in - Calm Calm - N/A Fog Fog
7:30 AM 42.8 °F 42.8 °F 100% 30.09 in - Calm Calm - N/A Fog Fog
8:00 AM 44.6 °F 44.6 °F 100% 30.12 in - Calm Calm - N/A Fog Fog
8:30 AM 45 °F 45 °F 98% 30.14 in 0 mi Calm Calm - - Fog Heavy Fog
8:30 AM 44.6 °F 44.6 °F 100% 30.12 in - Calm Calm - N/A Fog Fog
10:00 AM 50.0 °F 50.0 °F 100% 30.12 in - Calm Calm - N/A Fog Fog
11:30 AM 61 °F 61 °F 99% 30.12 in 0 mi Calm Calm - - Fog Partial Fog
12:00 PM 64.4 °F 62.6 °F 94% 30.12 in 0.5 mi Calm Calm - N/A Fog Fog
12:30 PM 68.0 °F 60.8 °F 78% 30.09 in 0.6 mi Calm Calm - N/A   Mostly Cloudy
2:30 PM 68 °F 64 °F 82% 30.05 in 1 mi WNW 6.9 mph - -   Mist
3:00 PM 68.0 °F 62.6 °F 83% 30.06 in 0.7 mi NW 6.9 mph - N/A   Scattered Clouds
4:00 PM 68.0 °F 64.4 °F 88% 30.04 in 0.7 mi WNW 5.8 mph - N/A   Scattered Clouds
5:30 PM 66.2 °F 64.4 °F 94% 30.04 in 0.7 mi Variable 3.5 mph - N/A   Scattered Clouds
6:30 PM 62.6 °F 62.6 °F 100% 30.04 in 0.6 mi Calm Calm - N/A   Scattered Clouds
7:00 PM 60.8 °F 60.8 °F 100% 30.04 in 0.6 mi Calm Calm - N/A   Scattered Clouds
9:00 PM 59.0 °F 59.0 °F 100% 30.06 in 0.4 mi Calm Calm - N/A Fog Fog
10:00 PM 59.0 °F 59.0 °F 100% 30.06 in 0.4 mi Calm Calm - N/A Fog Fog
11:30 PM 57 °F 57 °F 99% 30.07 in 0 mi Calm Calm - - Fog Partial Fog